"Time","Temp","Dewpoint","Humidity","Pressure","Direction","Speed","Gust","Precip","PrecipRate"
"00:04:56","69.2","66.5","91","29.98","184","0","0","0.00","0.00"
"00:09:57","68.9","66.2","91","29.98","184","0","0","0.00","0.00"
"00:14:59","68.8","66.4","92","29.98","184","0","0","0.00","0.00"
"00:19:57","68.6","66.2","92","29.98","184","0","0","0.00","0.00"
"00:24:58","68.5","66.2","92.3","29.98","184","0","0","0.00","0.00"
"00:29:59","68.3","65.9","92","29.99","184","0","0","0.00","0.00"
"00:34:56","68.1","65.8","92.4","29.99","184","0","0","0.00","0.00"
"00:39:55","68","65.9","93","29.99","184","0","0","0.00","0.00"
"00:44:56","67.9","65.8","93","29.99","184","0","0","0.00","0.00"
"00:49:57","67.9","66.1","93.8","29.98","184","0","0","0.00","0.00"
"00:54:58","68","66.2","94","29.98","184","0","0","0.00","0.00"
"00:59:58","67.9","66.1","94","29.98","184","0","0","0.00","0.00"
"01:04:59","67.7","65.8","93.5","29.98","184","0","0","0.00","0.00"
"01:09:57","67.5","65.7","94","29.98","184","0","0","0.00","0.00"
"01:14:56","67.4","65.6","94","29.98","184","0","0","0.00","0.00"
"01:19:57","67.2","65.5","94.1","29.98","184","0","0","0.00","0.00"
"01:24:58","67.3","65.8","95","29.98","184","0","0","0.00","0.00"
"01:29:59","67.3","65.6","94.2","29.98","184","0","0","0.00","0.00"
"01:34:59","67.3","65.5","94","29.98","184","0","0","0.00","0.00"
"01:39:59","67.1","65.3","94","29.98","184","0","0","0.00","0.00"
"01:44:56","66.9","65.2","94.1","29.98","184","0","0","0.00","0.00"
"01:49:57","66.8","65.3","94.9","29.98","184","0","0","0.00","0.00"
"01:54:58","66.7","65.2","94.9","29.98","184","0","0","0.00","0.00"
"01:59:58","66.7","65.2","95","29.98","184","0","0","0.00","0.00"
"02:04:56","66.6","65.1","95","29.98","184","0","0","0.00","0.00"
"02:09:58","66.6","65.1","95","29.98","184","0","0","0.00","0.00"
"02:14:58","66.6","65.1","95","29.98","184","0","0","0.00","0.00"
"02:19:58","66.4","64.9","95","29.98","184","0","0","0.00","0.00"
"02:24:59","66.3","64.8","95","29.98","184","0","0","0.00","0.00"
"02:29:59","66.1","64.6","95","29.98","184","0","0","0.00","0.00"
"02:34:56","66.1","64.6","95","29.98","184","0","0","0.00","0.00"
"02:39:59","66.1","64.6","95","29.98","184","0","0","0.00","0.00"
"02:44:56","66","64.5","95","29.98","184","0","0","0.00","0.00"
"02:49:57","65.9","64.4","95","29.98","184","0","0","0.00","0.00"
"02:54:58","65.8","64.3","95","29.98","184","0","0","0.00","0.00"
"02:59:59","65.7","64.2","95","29.98","184","0","0","0.00","0.00"
"03:04:56","65.6","64.4","95.9","29.98","184","0","0","0.00","0.00"
"03:09:58","65.6","64.4","96","29.98","184","0","0","0.00","0.00"
"03:14:57","65.6","64.4","96","29.99","184","0","0","0.00","0.00"
"03:19:58","65.5","64.3","95.8","29.99","184","0","0","0.00","0.00"
"03:24:59","65.5","64.3","96","29.99","184","0","0","0.00","0.00"
"03:29:59","65.5","64.3","96","29.99","184","0","0","0.00","0.00"
"03:34:59","65.4","64.2","96","29.99","184","0","0","0.00","0.00"
"03:39:57","65.4","64.2","96","29.99","184","0","0","0.00","0.00"
"03:44:59","65.4","64.2","96","29.99","184","0","0","0.00","0.00"
"03:49:56","65.3","64.1","96","29.99","184","0","0","0.00","0.00"
"03:54:57","65.3","64.1","96","29.99","184","0","0","0.00","0.00"
"03:59:58","65.2","64","96","29.99","184","0","0","0.00","0.00"
"04:04:57","65.1","63.9","96","29.98","184","0","0","0.00","0.00"
"04:09:59","65","63.8","96","29.98","184","0","0","0.00","0.00"
"04:14:58","64.9","63.7","96","29.98","184","0","0","0.00","0.00"
"04:19:58","64.8","63.6","96","29.98","184","0","0","0.00","0.00"
"04:24:55","64.8","63.6","96","29.98","184","0","0","0.00","0.00"
"04:29:58","64.7","63.5","96","29.99","184","0","0","0.00","0.00"
"04:34:59","64.7","63.5","96","29.99","184","0","0","0.00","0.00"
"04:39:58","64.7","63.8","97","29.99","184","0","0","0.00","0.00"
"04:44:59","64.6","63.5","96.1","29.99","184","0","0","0.00","0.00"
"04:49:59","64.5","63.3","96","29.99","184","0","0","0.00","0.00"
"04:54:59","64.5","63.4","96.3","29.99","184","0","0","0.00","0.00"
"04:59:59","64.5","63.6","97","29.99","184","0","0","0.00","0.00"
"05:04:56","64.5","63.6","97","29.99","184","0","0","0.00","0.00"
"05:09:59","64.4","63.2","96.1","29.99","184","0","0","0.00","0.00"
"05:14:58","64.3","63.1","96","29.99","184","0","0","0.00","0.00"
"05:19:58","64.3","63.1","96","29.99","184","0","0","0.00","0.00"
"05:24:59","64.3","63.1","96","29.99","184","0","0","0.00","0.00"
"05:29:56","64.2","63","96","30.00","184","0","0","0.00","0.00"
"05:34:56","64.1","63","96.3","30.00","184","0","0","0.00","0.00"
"05:39:56","64","63.1","96.8","30.00","184","0","0","0.00","0.00"
"05:44:57","64","63.1","97","30.00","184","0","0","0.00","0.00"
"05:49:58","64","63.1","97","30.00","184","0","0","0.00","0.00"
"05:54:59","63.9","63","97","30.00","184","0","0","0.00","0.00"
"05:59:59","63.9","63","97","30.01","184","0","0","0.00","0.00"
"06:04:56","63.8","62.9","97","30.01","184","0","0","0.00","0.00"
"06:09:59","63.8","62.9","97","30.01","184","0","0","0.00","0.00"
"06:14:59","63.7","62.8","97","30.01","184","0","0","0.00","0.00"
"06:19:59","63.7","62.8","97","30.01","184","0","0","0.00","0.00"
"06:24:56","63.8","62.9","97","30.01","184","0","0","0.00","0.00"
"06:29:56","63.8","62.9","97","30.02","184","0","0","0.00","0.00"
"06:34:59","63.9","63","97","30.02","184","0","0","0.00","0.00"
"06:39:57","63.9","63","97","30.02","184","0","0","0.00","0.00"
"06:44:57","64","63.1","97","30.02","184","0","0","0.00","0.00"
"06:49:56","64.1","63.2","97","30.02","184","0","0","0.00","0.00"
"06:54:56","64.2","63.3","97","30.02","184","0","0","0.00","0.00"
"06:59:59","64.4","63.7","97.7","30.03","184","0","0","0.00","0.00"
"07:04:59","64.6","64","98","30.03","184","0","0","0.00","0.00"
"07:09:57","64.8","64.2","98","30.03","184","0","0","0.00","0.00"
"07:14:56","65.1","64.5","98","30.03","184","0","0","0.00","0.00"
"07:19:59","65.4","64.8","97.9","30.03","184","0","0","0.00","0.00"
"07:24:57","65.7","64.8","97.1","30.03","184","0","0","0.00","0.00"
"07:29:58","66","65.4","98","30.03","184","0","0","0.00","0.00"
"07:34:57","66.4","65.6","97.3","30.03","184","0","0","0.00","0.00"
"07:39:59","66.7","65.8","97.1","30.03","184","0","0","0.00","0.00"
"07:44:58","67","66.1","97","30.04","184","0.4","3.5","0.00","0.00"
"07:49:58","67.3","66.2","96.1","30.04","185","1","4","0.00","0.00"
"07:54:57","67.6","66.1","95","30.04","226","1.3","4","0.00","0.00"
"07:59:59","68","66.3","94.5","30.04","300","0.8","3.5","0.00","0.00"
"08:04:56","68.4","66.6","94","30.04","307","0.8","3.5","0.00","0.00"
"08:09:58","68.7","66.6","93","30.04","307","1.2","3.5","0.00","0.00"
"08:14:56","69","66.8","92.5","30.05","307","0.6","3.5","0.00","0.00"
"08:19:56","69.5","67","91.8","30.05","308","1.2","3.5","0.00","0.00"
"08:24:56","69.9","67.4","91.5","30.05","309","0.3","2.3","0.00","0.00"
"08:29:56","70.5","67.5","90.3","30.05","309","1","3.5","0.00","0.00"
"08:34:56","70.9","67.7","89.5","30.05","309","0.8","4","0.00","0.00"
"08:39:58","71.4","68","89.3","30.05","309","1","3.5","0.00","0.00"
"08:44:59","71.8","68.1","87.8","30.05","309","0.5","3.5","0.00","0.00"
"08:49:59","72.2","67.9","86.3","30.05","308","0.8","3.5","0.00","0.00"
"08:54:59","72.6","68.4","86.7","30.05","308","0.4","2","0.00","0.00"
"08:59:59","73","68.5","85.7","30.05","309","0.6","2.3","0.00","0.00"
"09:04:59","73.5","68.8","85.3","30.05","299","0.7","3.5","0.00","0.00"
"09:09:57","73.9","69.1","85","30.05","294","0","0","0.00","0.00"
"09:14:57","74.5","69.7","85.2","30.06","246","0.8","2.3","0.00","0.00"
"09:19:57","74.9","69.7","83.8","30.06","225","1.3","4","0.00","0.00"
"09:24:56","75.4","70","83.3","30.06","196","1.2","4","0.00","0.00"
"09:29:56","75.9","69.6","80.8","30.06","282","1.3","4","0.00","0.00"
"09:34:57","76.4","69.8","80.4","30.06","291","1","3.5","0.00","0.00"
"09:39:56","76.6","69.3","78.1","30.06","301","1.8","4","0.00","0.00"
"09:44:56","76.9","69","76.8","30.06","334","1","3.5","0.00","0.00"
"09:49:59","77.4","69.6","77","30.06","354","1.1","3","0.00","0.00"
"09:54:56","77.8","70.6","78.3","30.06","56","0.8","3.5","0.00","0.00"
"09:59:56","78.4","69.9","75.4","30.06","56","1.1","3.5","0.00","0.00"
"10:04:56","78.9","69.6","73.1","30.06","66","1.3","3.5","0.00","0.00"
"10:09:57","79.3","69.2","71.2","30.06","152","1.8","4","0.00","0.00"
"10:14:59","79.6","69.3","70.8","30.06","179","1.3","3.5","0.00","0.00"
"10:19:58","79.9","69.4","70.4","30.06","192","1.8","3.5","0.00","0.00"
"10:24:57","80.2","69.4","69.9","30.06","186","1.8","3.5","0.00","0.00"
"10:29:56","80.4","69.4","69.2","30.06","183","0.8","2.3","0.00","0.00"
"10:34:59","80.8","69.7","69.1","30.06","149","1.3","3.5","0.00","0.00"
"10:39:57","81.3","69.8","68.2","30.06","44","0.7","2.3","0.00","0.00"
"10:44:56","81.8","70.3","68.1","30.06","59","0.4","2.3","0.00","0.00"
"10:49:55","82.4","70.5","67.3","30.06","109","1.2","4","0.00","0.00"
"10:54:59","82.8","70.7","67","30.06","51","1.3","4","0.00","0.00"
"10:59:59","83.1","70.1","65","30.06","114","0.4","3.5","0.00","0.00"
"11:04:59","83.4","71.6","67.6","30.06","178","1.7","4","0.00","0.00"
"11:09:57","83.6","70.7","65.1","30.06","198","2","4","0.00","0.00"
"11:14:59","83.4","71.1","66.5","30.07","204","1.7","4","0.00","0.00"
"11:19:58","83.4","70.3","64.9","30.07","204","1.8","4","0.00","0.00"
"11:24:57","83.5","70.7","65.5","30.07","205","0.8","3.5","0.00","0.00"
"11:29:57","83.8","71.5","66.8","30.07","222","1.5","4","0.00","0.00"
"11:34:56","83.9","70.2","63.5","30.07","212","1.9","6","0.00","0.00"
"11:39:58","84","69.9","62.6","30.07","180","2.3","9","0.00","0.00"
"11:44:57","84.3","70","62.3","30.07","157","1.7","9.2","0.00","0.00"
"11:49:56","84.6","69","59.7","30.06","159","2.2","4","0.00","0.00"
"11:54:59","84.6","69.1","59.8","30.06","177","1.6","5","0.00","0.00"
"11:59:57","84.7","69.6","60.6","30.07","114","1.9","5","0.00","0.00"
"12:04:58","84.7","70.7","63.1","30.07","340","1.2","3.5","0.00","0.00"
"12:09:56","84.9","70.2","61.5","30.07","209","2","4","0.00","0.00"
"12:14:58","85.2","70.8","62.2","30.07","189","2.9","6","0.00","0.00"
"12:19:57","85.1","70.5","61.7","30.07","192","2.8","6","0.00","0.00"
"12:24:56","85.1","70.8","62.4","30.07","262","1.6","5","0.00","0.00"
"12:29:59","85.3","70.3","61","30.07","194","2.8","5","0.00","0.00"
"12:34:58","85.3","70.6","61.7","30.07","196","1.6","5","0.00","0.00"
"12:39:56","85.3","69.8","60","30.07","196","1.7","3.5","0.00","0.00"
"12:44:56","85.4","69.7","59.8","30.07","209","2","4","0.00","0.00"
"12:49:59","85.6","70.3","60.4","30.06","221","2.3","4","0.00","0.00"
"12:54:58","85.8","70","59.5","30.06","240","1.3","5","0.00","0.00"
"12:59:57","85.7","70.1","59.8","30.06","250","2.6","6","0.00","0.00"
"13:04:57","85.7","70.1","59.9","30.06","339","1.4","3.5","0.00","0.00"
"13:09:56","85.7","70.6","60.8","30.06","313","1.1","4","0.00","0.00"
"13:14:58","86","70.7","60.3","30.06","198","2.8","4","0.00","0.00"
"13:19:56","86.3","71.3","61.1","30.06","199","1.7","4","0.00","0.00"
"13:24:59","86.6","69.1","56.2","30.06","183","2.2","4","0.00","0.00"
"13:29:58","86.8","70.1","57.6","30.06","217","2.4","5","0.00","0.00"
"13:34:56","86.8","69.2","56","30.06","305","2.4","6","0.00","0.00"
"13:39:58","86.8","70","57.6","30.06","226","3","5","0.00","0.00"
"13:44:57","87","69.5","56.3","30.06","242","2.6","5","0.00","0.00"
"13:49:59","87.2","70.2","57.1","30.05","166","2.5","5","0.00","0.00"
"13:54:59","87.3","69","54.8","30.05","132","1.3","4.6","0.00","0.00"
"13:59:58","87.5","69.7","55.7","30.05","140","0.7","3","0.00","0.00"
"14:04:59","87.9","70.3","56.2","30.04","195","2.5","5","0.00","0.00"
"14:09:57","88.2","71","56.9","30.04","203","2.9","6","0.00","0.00"
"14:14:57","88.5","70","54.6","30.04","180","1.5","5","0.00","0.00"
"14:19:58","88.5","69","52.6","30.04","271","2.6","6","0.00","0.00"
"14:24:58","88.4","67.7","50.4","30.04","213","2.7","5.8","0.00","0.00"
"14:29:57","88.4","69.4","53.6","30.04","172","1.4","3.5","0.00","0.00"
"14:34:58","88.7","69.6","53.5","30.04","218","2.4","6","0.00","0.00"
"14:39:57","88.8","69.4","53","30.04","230","0.8","4.6","0.00","0.00"
"14:44:58","88.9","68.1","50.6","30.04","206","0.1","3","0.00","0.00"
"14:49:59","88.9","68.4","51","30.04","247","0.6","3.5","0.00","0.00"
"14:54:55","89","69.6","53","30.04","231","0.2","5","0.00","0.00"
"14:59:56","89.1","68.8","51.2","30.04","284","0.2","5","0.00","0.00"
"15:04:57","89.2","69.2","52","30.04","236","0.6","5","0.00","0.00"
"15:09:59","89.1","69.5","52.7","30.04","244","1.5","6","0.00","0.00"
"15:14:59","88.9","69.4","52.8","30.04","203","0.9","3.5","0.00","0.00"
"15:19:59","88.8","68.2","50.8","30.04","286","0","1.2","0.00","0.00"
"15:24:57","88.6","69.2","52.8","30.04","208","1","6","0.00","0.00"
"15:29:59","88.6","69.3","53.1","30.04","211","0.8","5.8","0.00","0.00"
"15:34:59","88.9","70","53.8","30.04","224","0.4","3.5","0.00","0.00"
"15:39:59","89.1","69.4","52.4","30.04","214","0.6","5","0.00","0.00"
"15:44:56","89.3","68.7","51","30.04","266","0.7","4","0.00","0.00"
"15:49:58","89.2","66.9","48","30.04","227","2.9","6","0.00","0.00"
"15:54:56","89","66","46.7","30.04","272","2","4","0.00","0.00"
"15:59:57","89.1","68.1","50.2","30.04","201","2.6","5","0.00","0.00"
"16:04:59","89.2","67.7","49.3","30.04","187","2.7","6","0.00","0.00"
"16:09:57","89.2","67.3","48.6","30.04","190","1.9","6","0.00","0.00"
"16:14:57","89.2","67.5","48.9","30.04","197","0.1","1.2","0.00","0.00"
"16:19:58","89.3","68","49.6","30.04","230","0.8","5","0.00","0.00"
"16:24:59","89.2","67.5","49","30.04","244","0.2","3.5","0.00","0.00"
"16:29:58","89.3","68.5","50.5","30.04","201","0.5","5","0.00","0.00"
"16:34:59","89.5","68.5","50.1","30.03","231","3.1","6","0.00","0.00"
"16:39:59","89.3","68.1","49.8","30.03","246","3","5.8","0.00","0.00"
"16:44:57","89.3","68.4","50.5","30.03","223","2.7","5","0.00","0.00"
"16:49:58","89.2","67.7","49.3","30.03","222","2.2","5","0.00","0.00"
"16:54:59","89.2","68.4","50.5","30.03","243","2.5","5","0.00","0.00"
"16:59:56","89.4","69.3","51.7","30.03","229","1.7","5","0.00","0.00"
"17:04:59","89.6","69.1","51","30.03","233","1.7","3.5","0.00","0.00"
"17:09:57","89.9","68.7","49.9","30.03","244","1.9","4","0.00","0.00"
"17:14:59","90.1","67.9","48.3","30.03","310","1.2","3.5","0.00","0.00"
"17:19:56","89.9","68","48.7","30.03","222","1.8","4","0.00","0.00"
"17:24:57","89.7","68.5","49.8","30.03","212","2.3","5","0.00","0.00"
"17:29:58","89.6","68.1","49.4","30.03","200","2.1","4","0.00","0.00"
"17:34:59","89.4","67","47.8","30.03","214","2.3","5","0.00","0.00"
"17:39:59","89.3","68","49.8","30.03","235","2.3","4.6","0.00","0.00"
"17:44:59","89","67.3","49","30.03","200","2.3","4","0.00","0.00"
"17:49:56","88.9","67.4","49.3","30.03","193","2.8","6","0.00","0.00"
"17:54:56","88.8","67.8","50","30.03","179","2.5","6","0.00","0.00"
"17:59:57","88.7","68.3","51.1","30.03","182","1.4","3.5","0.00","0.00"
"18:04:59","88.6","67.4","49.7","30.03","182","1.1","4","0.00","0.00"
"18:09:57","88.6","67.6","50.1","30.03","183","1.9","4","0.00","0.00"
"18:14:56","88.5","68.7","52.1","30.03","188","1.8","4","0.00","0.00"
"18:19:57","88.4","67.5","50.3","30.03","202","1.5","3.5","0.00","0.00"
"18:24:58","88.2","68","51.4","30.03","204","1.5","3.5","0.00","0.00"
"18:29:58","87.9","67.8","51.5","30.03","205","1.5","3.5","0.00","0.00"
"18:34:59","87.7","67.7","51.7","30.03","205","1.2","4","0.00","0.00"
"18:39:59","87.6","67.6","51.6","30.03","202","2.2","4","0.00","0.00"
"18:44:56","87.4","68.1","52.8","30.03","196","1.6","3.5","0.00","0.00"
"18:49:57","87.3","68.5","53.9","30.03","195","1.6","3.5","0.00","0.00"
"18:54:58","87","68.7","54.7","30.03","195","1.1","3.5","0.00","0.00"
"18:59:58","86.6","68","54","30.03","195","1.6","4","0.00","0.00"
"19:04:59","86.2","67.2","53.2","30.03","195","1.8","3.5","0.00","0.00"
"19:09:57","86","67.1","53.4","30.03","194","1.5","3.5","0.00","0.00"
"19:14:57","85.9","67.1","53.6","30.03","194","1.4","3","0.00","0.00"
"19:19:58","85.8","67.2","54.1","30.03","194","1.4","3.5","0.00","0.00"
"19:24:59","85.6","67","53.9","30.03","194","1.5","3.5","0.00","0.00"
"19:29:56","85.4","67.6","55.4","30.03","194","1","2.3","0.00","0.00"
"19:34:58","85.1","67.7","56.1","30.03","194","1.4","3.5","0.00","0.00"
"19:39:57","84.8","67.6","56.5","30.03","194","0.8","2.3","0.00","0.00"
"19:44:59","84.4","67.5","57","30.03","194","0.4","2.3","0.00","0.00"
"19:49:57","84.1","68.1","58.7","30.03","194","0","0","0.00","0.00"
"19:54:59","83.5","67.8","59.3","30.03","194","0","0","0.00","0.00"
"19:59:56","82.9","68.6","62.2","30.03","233","0.2","1.2","0.00","0.00"
"20:04:58","82.2","68.2","62.6","30.03","233","0.2","1.2","0.00","0.00"
"20:09:56","81.5","68","63.5","30.03","232","0","1.2","0.00","0.00"
"20:14:57","80.9","68.2","65.5","30.03","252","0","1.2","0.00","0.00"
"20:19:58","80.3","68.5","67.4","30.03","252","0","0","0.00","0.00"
"20:24:56","79.8","68.3","68","30.03","252","0","0","0.00","0.00"
"20:29:58","79.5","68.4","69","30.03","252","0","1","0.00","0.00"
"20:34:56","79.1","68.8","70.8","30.03","252","0","1.2","0.00","0.00"
"20:39:58","78.6","68.5","71.3","30.03","252","0","0","0.00","0.00"
"20:44:59","78.2","68.4","71.9","30.03","252","0","0","0.00","0.00"
"20:49:59","77.9","68.5","73","30.03","252","0","0","0.00","0.00"
"20:54:59","77.4","68.4","73.6","30.03","252","0.1","1.2","0.00","0.00"
"20:59:56","77","68.3","74.6","30.04","252","0","1.2","0.00","0.00"
"21:04:58","76.6","67.7","74","30.04","252","0","1","0.00","0.00"
"21:09:56","76.4","67.6","74.2","30.04","252","0","0","0.00","0.00"
"21:14:59","76.3","68.1","75.7","30.04","252","0","0","0.00","0.00"
"21:19:59","76.1","68.2","76.7","30.04","252","0","0","0.00","0.00"
"21:24:59","75.9","68.5","77.9","30.04","252","0","0","0.00","0.00"
"21:29:59","75.7","68.4","78","30.04","252","0","0","0.00","0.00"
"21:34:59","75.4","68.4","78.8","30.04","252","0","0","0.00","0.00"
"21:39:57","75.2","68.4","79.4","30.04","252","0","0","0.00","0.00"
"21:44:57","75","68.6","80.4","30.05","252","0","0","0.00","0.00"
"21:49:57","74.8","68.8","81.7","30.05","252","0","0","0.00","0.00"
"21:54:57","74.6","68.6","81.5","30.05","252","0","0","0.00","0.00"
"21:59:57","74.4","68.4","81.6","30.06","252","0","0","0.00","0.00"
"22:04:59","74.1","68.1","81.5","30.06","252","0","0","0.00","0.00"
"22:09:58","74","68.2","82","30.06","252","0","0","0.00","0.00"
"22:14:56","73.8","68","82.1","30.06","252","0","0","0.00","0.00"
"22:19:58","73.6","68.1","82.8","30.06","252","0","0","0.00","0.00"
"22:24:59","73.5","68","83","30.06","252","0","0","0.00","0.00"
"22:29:58","73.4","67.9","83.2","30.06","252","0","0","0.00","0.00"
"22:34:56","73.3","68.3","84.3","30.06","252","0","1","0.00","0.00"
"22:39:57","73.1","68","84","30.06","252","0","0","0.00","0.00"
"22:44:57","73","68.1","84.6","30.06","252","0","0","0.00","0.00"
"22:49:56","72.9","68.1","85","30.06","252","0","1.2","0.00","0.00"
"22:54:56","72.9","68.2","85.1","30.06","252","0.1","1.2","0.00","0.00"
"22:59:56","73","68.5","85.6","30.07","252","0.1","1.2","0.00","0.00"
"23:04:58","73.1","68.5","85.3","30.07","252","0","0","0.00","0.00"
"23:09:57","73.3","68.5","85","30.07","252","0","1.2","0.00","0.00"
"23:14:56","73.7","68.8","84.7","30.07","252","0","1.2","0.00","0.00"
"23:19:58","74","68.9","84","30.06","252","0","0","0.00","0.00"
"23:24:58","74.2","68.9","83.6","30.06","252","0","0","0.00","0.00"
"23:29:57","74.2","68.7","83","30.06","252","0.1","1.2","0.00","0.00"
"23:34:59","74.3","68.8","83","30.06","252","0.1","1.2","0.00","0.00"
"23:39:57","74.4","68.9","83","30.06","252","0.2","2","0.00","0.00"
"23:44:57","74.4","68.9","83","30.06","252","0.1","2.3","0.00","0.00"
"23:49:59","74.4","68.9","83","30.06","252","0.2","1.2","0.00","0.00"
"23:54:57","74.4","68.9","83","30.06","252","0.2","2.3","0.00","0.00"
"23:59:56","74.4","68.9","83","30.06","252","0.3","2","0.00","0.00"
